Regional Weather Roundup
Issued by NWS Newport/Morehead, NC

Current Version | Previous Version | Graphics & Text | Print | Product List | Glossary Off
Versions: 1 2 3 4 5 6 7 8 9 10 11 12 13 14 15 16 17 18 19 20 21 22 23 24 25 26 27 28 29 30 31 32 33 34 35 36 37 38 39 40 41 42 43 44 45 46 47 48 49 50

339
ASUS42 KMHX 221413
RWRMHX
WEATHER ROUNDUP FOR EASTERN NORTH CAROLINA
NATIONAL WEATHER SERVICE NEWPORT/MOREHEAD CITY NC
900 AM EST WED FEB 22 2017

NOTE: "FAIR" INDICATES FEW OR NO CLOUDS BELOW 12,000 FEET
WITH NO SIGNIFICANT WEATHER AND/OR OBSTRUCTIONS TO VISIBILITY

NCZ015>017-031-032-045>047-102-103-221500-
NORTH COAST

CITY           SKY/WX    TMP DP  RH WIND       PRES   REMARKS
EDENTON        FAIR      59  51  76 SE5       30.06F
ELIZABETH CITY CLOUDY    58  49  72 S6        30.06S
KITTY HAWK     NOT AVBL
MANTEO         FAIR      62  50  64 S7        30.08S

$$

NCZ045>047-081-094-103-104-221500-
CENTRAL COAST

CITY           SKY/WX    TMP DP  RH WIND       PRES   REMARKS
FRISCO         FAIR      67  53  61 SE3       30.07S

$$

NCZ095-097-098-100-101-221500-
SOUTHERN COAST

CITY           SKY/WX    TMP DP  RH WIND       PRES   REMARKS
BEAUFORT       FAIR      63  55  75 E3        30.04F
CEDAR ISLAND   NOT AVBL
JACKSONVILLE   FAIR      61  55  81 CALM      30.03S
PINEY ISLAND   FAIR     N/A N/A N/A E5        30.05S
WILMINGTON     FAIR      64  55  72 SE7       30.01F


$$

NCZ011>013-027>030-043-044-078>080-089-090>093-098-221500-
COASTAL PLAIN

CITY           SKY/WX    TMP DP  RH WIND       PRES   REMARKS
AHOSKIE          N/A     53  49  86 S3        30.05F
CLINTON        FAIR      56  53  87 E3        30.04S
ELIZABETHTOWN  FAIR      56  54  95 CALM      30.02S
GOLDSBORO      PTSUNNY   60  57  89 SE5       30.02F
GREENVILLE     FAIR      55  50  82 SE3       30.06F
HAVELOCK       PTSUNNY   64  54  69 SE6       30.05F
KENANSVILLE    NOT AVBL
KINSTON        FAIR      57  52  82 CALM      30.05F
NEW BERN       FAIR      59  55  87 NE3       30.06S
RICHLANDS      FAIR      60  53  77 VRB3      30.04F
ROCKY MOUNT    FAIR      56  51  84 S5        30.05S
WASHINGTON     FAIR      58  52  81 SE5       30.06F
WHITEVILLE     FAIR      63  54  74 E5        30.00S

$$

AMZ130-135-150-152-154-156-158-170-250-252-270-ANZ085-086-088-633-658-670-221500-
MARINE OBSERVATIONS

STATION/POSITION TIME  TEMP    WIND        PRES    WAVE   SWELL
                       AIR SEA DIR/SP/G            HT/PER HT/PER
                 (UTC) (F)     (DEG/KT/KT) (MB)    (FT/S) (FT/S)
CHESAPEAKE LIGHT NOT AVBL
64 E VA BEACH    1350   56 53  200/  6/  8 1018.1    4/ 9   3/ 9
DUCK             1348   51 48  150/  8/  8 1017.6
2 E DUCK         1400      49                N/A     3/ 8
OREGON INLET     1336   60 51  110/  4/  5 1018.3
13E OREGON INLT  NOT AVBL
HATTERAS CG      1348   65 58  130/  4/  6 1017.7
DIAMOND BUOY     1350   66 74  150/  8/ 12 1018.2    3/ 9   3/ 9
CAPE LOOKOUT     1400   63      90/  3/  4 1016.9
BEAUFORT LAB     1348   61 53   CALM  /  1 1016.3
30 SE NEW RVR IN 1308   68     160/ 10/ 14 1017.2
30 SE NEW RVR IN 1343      69                N/A     3/ 8
27 SE WRIGHTSVLE 1308   67 64  120/ 12/ 16 1015.9
5 SE WRIGHTSVLE  1308   60 56  130/  8/ 12 1016.4
225 S CAPE HAT   1350   65 71   80/ 12/ 14 1017.6    5/ 9   5/ 9
41 SE CHARLESTON 1350   70 69   90/ 17/ 19 1013.7    4/ 6   2/ 9

$$




USA.gov is the U.S. government's official web portal to all federal, state and local government web resources and services.